Torna al catalogo

CZ-6A DEB

AttivoSSO
NORAD 56280·DEBRIS·🇨🇳 China

Lanciato Nov 11, 2022 da Taiyuan Satellite Launch Center

Loading…

Prossimi Passaggi (prossime 24 ore)

TLE

AggiornatoSource: Space-Track

Epoca: Sep 14, 2026, 08:45 UTC

1 56280U 22151ACY 26257.36523875  .00000801  00000-0  53764-3 0  9990
2 56280  98.8909 233.4510 0101033 159.0326 201.5028 14.01095710178279

Traccia CZ-6A DEB in tempo reale con AllMySat

Download on the App Store